�������l�o���
Date,Time,MP-1(��Sv/h),MP-2(��Sv/h),MP-3(��Sv/h),MP-4(��Sv/h),MP-5(��Sv/h),MP-6(��Sv/h),MP-7(��Sv/h),MP-8(��Sv/h),����,����(m/s),���J
2019/01/31,00:00,0.777,1.150,0.806,1.480,1.058,0.447,0.791,0.750,��,1.2,��
2019/01/31,00:10,0.776,1.149,0.807,1.480,1.056,0.445,0.791,0.752,���쐼,1.1,��
2019/01/31,00:20,0.776,1.151,0.807,1.479,1.055,0.446,0.792,0.751,�쐼,2.6,��
2019/01/31,00:30,0.776,1.150,0.806,1.481,1.056,0.446,0.792,0.751,�쐼,3.9,��
2019/01/31,00:40,0.777,1.151,0.806,1.479,1.055,0.444,0.792,0.750,�쐼,3.0,��
2019/01/31,00:50,0.778,1.148,0.806,1.480,1.058,0.445,0.793,0.750,�쐼,4.2,��
2019/01/31,01:00,0.776,1.151,0.807,1.481,1.057,0.447,0.793,0.752,���쐼,3.6,��
2019/01/31,01:10,0.777,1.147,0.807,1.482,1.056,0.445,0.793,0.751,��,1.7,��
2019/01/31,01:20,0.776,1.150,0.806,1.480,1.054,0.446,0.792,0.748,��쓌,3.3,��
2019/01/31,01:30,0.774,1.151,0.806,1.481,1.057,0.447,0.794,0.751,��쓌,3.4,��
2019/01/31,01:40,0.776,1.145,0.806,1.480,1.056,0.446,0.794,0.752,��쐼,2.8,��
2019/01/31,01:50,0.775,1.149,0.805,1.480,1.055,0.445,0.794,0.750,�쐼,2.6,��
2019/01/31,02:00,0.777,1.149,0.805,1.480,1.056,0.446,0.794,0.750,��쐼,2.2,��
2019/01/31,02:10,0.777,1.149,0.805,1.480,1.055,0.444,0.794,0.752,��쐼,0.9,��
2019/01/31,02:20,0.777,1.147,0.807,1.478,1.057,0.447,0.794,0.754,-,CALM,��
2019/01/31,02:30,0.777,1.149,0.808,1.482,1.056,0.448,0.793,0.750,�k��,1.2,��
2019/01/31,02:40,0.776,1.150,0.807,1.482,1.057,0.446,0.793,0.751,��,3.4,��
2019/01/31,02:50,0.778,1.149,0.808,1.479,1.059,0.446,0.794,0.752,���쐼,4.0,��
2019/01/31,03:00,0.775,1.147,0.807,1.483,1.057,0.447,0.792,0.752,��,4.8,��
2019/01/31,03:10,0.779,1.150,0.805,1.483,1.055,0.446,0.795,0.753,��,6.7,��
2019/01/31,03:20,0.775,1.150,0.808,1.480,1.057,0.447,0.795,0.752,��,7.9,��
2019/01/31,03:30,0.779,1.149,0.808,1.479,1.055,0.446,0.795,0.753,���k��,7.9,��
2019/01/31,03:40,0.779,1.151,0.807,1.483,1.056,0.446,0.795,0.752,���k��,6.6,��
2019/01/31,03:50,0.779,1.151,0.808,1.483,1.058,0.448,0.796,0.751,�k��,5.6,��
2019/01/31,04:00,0.777,1.152,0.808,1.483,1.056,0.447,0.795,0.753,�k��,6.5,��
2019/01/31,04:10,0.779,1.152,0.807,1.482,1.058,0.446,0.795,0.753,�k��,6.6,��
2019/01/31,04:20,0.777,1.151,0.808,1.484,1.058,0.446,0.795,0.753,���k��,6.0,��
2019/01/31,04:30,0.779,1.154,0.809,1.482,1.057,0.448,0.796,0.752,�k��,5.6,��
2019/01/31,04:40,0.777,1.153,0.808,1.485,1.057,0.447,0.796,0.752,�k��,5.6,��
2019/01/31,04:50,0.779,1.150,0.809,1.485,1.057,0.447,0.794,0.753,�k�k��,7.0,��
2019/01/31,05:00,0.781,1.152,0.809,1.485,1.056,0.447,0.793,0.752,�k�k��,5.6,��
2019/01/31,05:10,0.777,1.150,0.808,1.483,1.058,0.446,0.796,0.752,�k,5.0,��
2019/01/31,05:20,0.779,1.149,0.808,1.483,1.055,0.447,0.796,0.752,�k�k��,3.1,��
2019/01/31,05:30,0.781,1.152,0.810,1.483,1.056,0.447,0.795,0.752,�k�k��,1.5,��
2019/01/31,05:40,0.779,1.149,0.808,1.483,1.057,0.447,0.798,0.751,��,0.9,��
2019/01/31,05:50,0.778,1.150,0.810,1.482,1.057,0.447,0.796,0.752,�k,1.1,��
2019/01/31,06:00,0.779,1.149,0.809,1.484,1.059,0.447,0.795,0.752,�k��,1.1,��
2019/01/31,06:10,0.778,1.151,0.807,1.482,1.057,0.446,0.795,0.753,��,1.2,��
2019/01/31,06:20,0.779,1.149,0.808,1.481,1.056,0.447,0.796,0.754,��쐼,3.6,��
2019/01/31,06:30,0.780,1.149,0.807,1.482,1.056,0.447,0.797,0.752,�쐼,5.3,��
2019/01/31,06:40,0.777,1.152,0.809,1.483,1.056,0.447,0.796,0.752,��쐼,4.3,��
2019/01/31,06:50,0.779,1.148,0.805,1.483,1.057,0.446,0.796,0.752,��쐼,2.9,��
2019/01/31,07:00,0.779,1.150,0.807,1.484,1.059,0.447,0.794,0.752,��,3.2,��
2019/01/31,07:10,0.778,1.149,0.808,1.480,1.055,0.446,0.796,0.752,��,5.6,��
2019/01/31,07:20,0.779,1.148,0.809,1.482,1.058,0.447,0.797,0.754,���쐼,5.1,��
2019/01/31,07:30,0.780,1.149,0.810,1.481,1.058,0.448,0.797,0.754,���쐼,5.4,��
2019/01/31,07:40,0.779,1.150,0.807,1.483,1.057,0.447,0.797,0.753,���쐼,5.7,��
2019/01/31,07:50,0.777,1.149,0.806,1.483,1.059,0.448,0.794,0.752,�쐼,5.8,��
2019/01/31,08:00,0.779,1.149,0.810,1.483,1.058,0.447,0.799,0.752,���쐼,6.2,��
2019/01/31,08:10,0.781,1.149,0.810,1.483,1.056,0.448,0.797,0.755,�쐼,6.8,��
2019/01/31,08:20,0.779,1.149,0.810,1.484,1.058,0.448,0.797,0.752,���쐼,6.9,��
2019/01/31,08:30,0.780,1.147,0.807,1.484,1.058,0.447,0.795,0.752,�쐼,5.5,��
2019/01/31,08:40,0.779,1.149,0.810,1.483,1.059,0.445,0.798,0.753,���쐼,4.9,��
2019/01/31,08:50,0.781,1.147,0.808,1.481,1.058,0.442,0.798,0.752,���쐼,3.5,��
2019/01/31,09:00,0.779,1.147,0.806,1.482,1.058,0.446,0.798,0.753,���쐼,4.8,��
2019/01/31,09:10,0.781,1.146,0.807,1.482,1.060,0.448,0.796,0.754,���쐼,5.8,��
2019/01/31,09:20,0.779,1.147,0.808,1.484,1.059,0.447,0.798,0.753,���쐼,6.6,��
2019/01/31,09:30,0.782,1.150,0.810,1.484,1.062,0.446,0.794,0.753,���쐼,6.5,��
2019/01/31,09:40,0.782,1.148,0.807,1.485,1.060,0.447,0.795,0.752,��,7.8,��
2019/01/31,09:50,0.781,1.146,0.807,1.484,1.059,0.448,0.793,0.754,��,7.7,��
2019/01/31,10:00,0.783,1.145,0.808,1.487,1.060,0.448,0.792,0.754,���k��,6.4,��
2019/01/31,10:10,0.781,1.148,0.806,1.485,1.061,0.449,0.795,0.754,���k��,8.3,��
2019/01/31,10:20,0.781,1.145,0.807,1.485,1.060,0.450,0.792,0.756,��,6.6,��
2019/01/31,10:30,0.782,1.143,0.808,1.482,1.061,0.448,0.794,0.754,��,5.3,��
2019/01/31,10:40,0.782,1.144,0.807,1.481,1.060,0.450,0.795,0.753,��,5.9,��
2019/01/31,10:50,0.779,1.147,0.809,1.484,1.062,0.450,0.796,0.754,��,5.5,��
2019/01/31,11:00,0.782,1.147,0.809,1.484,1.062,0.452,0.795,0.754,��,5.9,��
2019/01/31,11:10,0.782,1.151,0.810,1.483,1.064,0.451,0.795,0.755,��,3.8,��
2019/01/31,11:20,0.783,1.151,0.810,1.483,1.064,0.452,0.795,0.755,���k��,2.6,��
2019/01/31,11:30,0.783,1.152,0.810,1.480,1.064,0.451,0.796,0.755,�k��,2.9,��
2019/01/31,11:40,0.783,1.153,0.811,1.485,1.066,0.451,0.795,0.755,�k�k��,3.5,��
2019/01/31,11:50,0.784,1.153,0.810,1.486,1.067,0.450,0.795,0.755,�k�k��,3.7,��
2019/01/31,12:00,0.784,1.153,0.809,1.487,1.063,0.453,0.798,0.756,��,5.2,��
2019/01/31,12:10,0.782,1.151,0.809,1.486,1.062,0.452,0.795,0.754,���쐼,6.0,��
2019/01/31,12:20,0.784,1.152,0.810,1.487,1.064,0.452,0.796,0.756,��,7.2,��
2019/01/31,12:30,0.783,1.150,0.812,1.488,1.063,0.451,0.795,0.755,��,7.4,��
2019/01/31,12:40,0.784,1.149,0.812,1.486,1.063,0.450,0.796,0.753,��,7.5,��
2019/01/31,12:50,0.783,1.151,0.811,1.490,1.064,0.450,0.798,0.755,��,7.9,��
2019/01/31,13:00,0.782,1.146,0.812,1.488,1.062,0.449,0.796,0.752,��,5.6,��
2019/01/31,13:10,0.781,1.147,0.811,1.487,1.063,0.450,0.796,0.751,��,6.6,��
2019/01/31,13:20,0.784,1.145,0.811,1.489,1.063,0.449,0.795,0.751,��,5.8,��
2019/01/31,13:30,0.784,1.150,0.812,1.490,1.062,0.451,0.793,0.754,��,6.1,��
2019/01/31,13:40,0.784,1.145,0.809,1.489,1.063,0.452,0.795,0.754,��,5.2,��
2019/01/31,13:50,0.785,1.148,0.809,1.489,1.062,0.451,0.796,0.755,��,7.0,��
2019/01/31,14:00,0.784,1.149,0.810,1.490,1.065,0.452,0.798,0.756,��,4.7,��
2019/01/31,14:10,0.785,1.149,0.811,1.490,1.064,0.451,0.796,0.754,��,3.2,��
2019/01/31,14:20,0.783,1.149,0.809,1.490,1.064,0.451,0.796,0.755,���k��,5.5,��
2019/01/31,14:30,0.786,1.146,0.811,1.491,1.065,0.452,0.799,0.755,���k��,6.3,��
2019/01/31,14:40,0.784,1.147,0.811,1.492,1.064,0.451,0.795,0.753,��,6.9,��
2019/01/31,14:50,0.784,1.149,0.811,1.489,1.063,0.451,0.799,0.754,���k��,6.2,��
2019/01/31,15:00,0.783,1.148,0.810,1.490,1.065,0.451,0.798,0.754,��,6.0,��
2019/01/31,15:10,0.783,1.150,0.810,1.491,1.065,0.452,0.796,0.753,��,4.9,��
2019/01/31,15:20,0.784,1.150,0.811,1.490,1.064,0.452,0.797,0.752,�k��,5.2,��
2019/01/31,15:30,0.783,1.153,0.814,1.491,1.062,0.452,0.795,0.754,�k�k��,5.5,��
2019/01/31,15:40,0.784,1.154,0.810,1.490,1.067,0.451,0.798,0.754,�k��,4.4,��
2019/01/31,15:50,0.781,1.156,0.812,1.488,1.063,0.451,0.797,0.756,�k��,6.3,��
2019/01/31,16:00,0.783,1.155,0.811,1.489,1.065,0.452,0.797,0.754,�k��,8.0,��
2019/01/31,16:10,0.780,1.156,0.811,1.489,1.064,0.451,0.795,0.754,�k��,10.5,��
2019/01/31,16:20,0.781,1.154,0.811,1.489,1.065,0.451,0.795,0.754,�k��,10.9,��
2019/01/31,16:30,0.780,1.159,0.810,1.488,1.064,0.450,0.796,0.756,�k��,12.0,��
2019/01/31,16:40,0.780,1.158,0.811,1.489,1.065,0.452,0.794,0.755,�k��,11.6,��
2019/01/31,16:50,0.782,1.157,0.809,1.493,1.065,0.451,0.797,0.755,�k��,11.9,��
2019/01/31,17:00,0.781,1.158,0.813,1.492,1.066,0.451,0.797,0.755,�k��,9.3,��
2019/01/31,17:10,0.782,1.158,0.811,1.491,1.067,0.450,0.797,0.755,�k��,4.2,��
2019/01/31,17:20,0.781,1.159,0.811,1.493,1.066,0.451,0.798,0.755,�k��,4.7,��
2019/01/31,17:30,0.782,1.160,0.811,1.491,1.067,0.450,0.799,0.755,�k��,7.1,��
2019/01/31,17:40,0.784,1.158,0.810,1.491,1.068,0.451,0.796,0.754,�k��,8.7,��
2019/01/31,17:50,0.782,1.159,0.811,1.492,1.067,0.448,0.798,0.755,�k��,8.2,��
2019/01/31,18:00,0.782,1.161,0.810,1.490,1.068,0.450,0.796,0.754,�k��,7.5,��
2019/01/31,18:10,0.781,1.156,0.807,1.490,1.069,0.451,0.798,0.755,�k��,8.0,��
2019/01/31,18:20,0.783,1.154,0.805,1.490,1.066,0.449,0.798,0.755,�k��,7.3,��
2019/01/31,18:30,0.781,1.156,0.804,1.489,1.067,0.450,0.798,0.753,�k��,8.1,��
2019/01/31,18:40,0.783,1.160,0.806,1.490,1.068,0.449,0.799,0.755,���k��,6.1,��
2019/01/31,18:50,0.783,1.157,0.806,1.494,1.067,0.452,0.799,0.754,�k��,5.1,��
2019/01/31,19:00,0.783,1.157,0.807,1.491,1.068,0.449,0.798,0.755,�k�k��,4.1,��
2019/01/31,19:10,0.783,1.161,0.810,1.492,1.068,0.450,0.799,0.754,�k��,6.2,��
2019/01/31,19:20,0.784,1.155,0.809,1.493,1.066,0.449,0.797,0.754,�k��,7.8,��
2019/01/31,19:30,0.783,1.142,0.811,1.491,1.066,0.449,0.799,0.753,�k��,7.5,��
2019/01/31,19:40,0.783,1.140,0.809,1.492,1.065,0.450,0.798,0.756,�k�k��,6.2,��
2019/01/31,19:50,0.782,1.142,0.808,1.491,1.069,0.448,0.797,0.755,�k�k��,5.6,��
2019/01/31,20:00,0.782,1.142,0.805,1.492,1.068,0.450,0.797,0.754,�k�k��,6.3,��
2019/01/31,20:10,0.782,1.143,0.808,1.489,1.067,0.449,0.798,0.755,�k�k��,6.9,��
2019/01/31,20:20,0.781,1.143,0.808,1.490,1.066,0.449,0.798,0.754,�k��,7.4,��
2019/01/31,20:30,0.784,1.141,0.811,1.493,1.065,0.449,0.798,0.755,�k��,6.3,��
2019/01/31,20:40,0.780,1.143,0.811,1.490,1.067,0.448,0.798,0.753,�k��,7.4,��
2019/01/31,20:50,0.780,1.140,0.810,1.494,1.069,0.448,0.797,0.753,�k��,7.9,��
2019/01/31,21:00,0.781,1.139,0.808,1.494,1.067,0.448,0.797,0.754,�k��,6.1,��
2019/01/31,21:10,0.782,1.141,0.805,1.491,1.067,0.450,0.798,0.754,�k�k��,4.3,��
2019/01/31,21:20,0.781,1.139,0.804,1.492,1.064,0.449,0.798,0.752,�k�k��,4.8,��
2019/01/31,21:30,0.780,1.141,0.804,1.492,1.066,0.449,0.799,0.754,�k�k��,4.9,��
2019/01/31,21:40,0.781,1.141,0.808,1.492,1.068,0.447,0.800,0.754,�k�k��,5.7,��
2019/01/31,21:50,0.780,1.141,0.810,1.490,1.067,0.448,0.798,0.754,�k�k��,4.7,��
2019/01/31,22:00,0.779,1.140,0.811,1.490,1.067,0.449,0.798,0.754,�k�k��,3.9,��
2019/01/31,22:10,0.781,1.139,0.809,1.490,1.069,0.448,0.798,0.755,�k�k��,4.2,��
2019/01/31,22:20,0.782,1.149,0.807,1.493,1.068,0.449,0.798,0.754,�k�k��,4.1,��
2019/01/31,22:30,0.780,1.161,0.811,1.490,1.067,0.448,0.798,0.754,�k�k��,4.0,��
2019/01/31,22:40,0.780,1.159,0.810,1.490,1.068,0.447,0.798,0.752,�k�k��,3.4,��
2019/01/31,22:50,0.780,1.160,0.810,1.492,1.066,0.448,0.798,0.754,�k�k��,3.4,��
2019/01/31,23:00,0.782,1.160,0.812,1.491,1.065,0.448,0.797,0.752,�k�k��,6.5,��
2019/01/31,23:10,0.781,1.158,0.812,1.492,1.066,0.449,0.796,0.753,�k�k��,6.9,��
2019/01/31,23:20,0.781,1.158,0.810,1.492,1.068,0.450,0.799,0.754,�k�k��,6.3,��
2019/01/31,23:30,0.783,1.160,0.812,1.491,1.066,0.447,0.796,0.755,�k�k��,6.1,��
2019/01/31,23:40,0.780,1.160,0.813,1.492,1.067,0.448,0.797,0.755,�k�k��,5.9,��
2019/01/31,23:50,0.781,1.159,0.812,1.491,1.068,0.447,0.800,0.755,�k�k��,6.6,��
